sat.trackr.live / text

‹ back to catalog

IONOSFERA-M 4

NORAD 64877 · 2025-155B

PAYLOAD ACTIVE UNKNOWN

§ Identity

Operator
Country
CIS
Launch date
2025-07-25
Launch site
VOSTO
Launch vehicle
Mass (kg)
RCS (m²)

Purposes: earth_obs

External: N2YO · Heavens-Above · Gunter

§ Orbital elements

Epoch: 2026-09-19T22:52:08.101056Z

Period
101.30 min
Inclination
98.6140°
Eccentricity
0.0000666
Mean motion
14.21502535 rev/d
Perigee alt
819.8 km
Apogee alt
820.8 km
Semi-major
7,198.4 km
B*
3.5118e-5
RAAN
222.4356°
Arg perigee
52.8845°
Mean anomaly
307.2394°
Rev number
5,986

§ Raw data

IONOSFERA-M 41 64877U 25155B   26262.95287154  .00000034  00000+0  35118-4 0  99972 64877  98.6140 222.4356 0000666  52.8845 307.2394 14.21502535 59860

JSON: /api/v1/satellites/64877 · /tle

For live sub-satellite position, see the globe view (requires WebGL).

§ Visibility from observer

Set your observer location to see the next 7 days of passes ≥ 10°. The values pass through the URL so the page stays shareable.

No JS? Fill the form by hand. The geolocation button needs JavaScript.

§ Radio — SatNOGS DB

ModeDescriptionDownlinkUplink
FM Telemetry 399.919 MHz

1 transmitter · refreshed weekly from db.satnogs.org